GFSFLT2_2pvu_pres_039.txt.gz
Presure
191 202 175 218 276 168 240 215 215 219 224 242 255 276 478 456 465 457 434 415 402 399 395 394 401 421 441
202 166 175 160 293 212 221 219 226 238 255 295 467 441 430 451 422 399 377 367 364 366 364 357 370 374 374
160 136 173 268 208 218 223 238 250 320 474 438 417 415 413 394 371 356 354 351 339 337 341 354 368 372 374
143 283 253 217 217 233 242 254 500 447 418 402 417 405 377 361 344 337 335 333 328 325 326 333 356 364 375
281 220 217 219 239 246 402 493 419 409 406 431 407 371 361 341 327 322 320 318 312 326 325 415 423 421 415
214 218 225 245 250 510 485 414 383 383 372 387 375 359 345 329 323 320 311 319 320 318 321 413 459 465 483
219 236 247 324 499 449 401 380 364 359 394 354 348 336 331 327 321 316 314 316 317 312 422 407 392 390 429
240 250 457 455 409 393 373 352 338 334 325 311 327 340 330 326 315 312 307 311 316 309 398 387 377 359 363
258 427 402 386 381 369 358 342 316 310 320 304 306 304 296 310 316 305 288 308 309 319 379 366 352 350 357
400 374 363 352 339 334 323 318 309 297 306 292 305 309 295 287 284 270 271 287 305 320 386 361 361 360 361
362 349 336 325 320 318 314 311 288 276 274 285 300 308 295 291 289 265 268 278 303 327 381 362 355 354 349
340 329 325 337 348 345 312 297 285 259 245 321 324 360 326 319 297 277 273 284 307 331 370 345 350 384 384
323 350 347 341 338 333 262 333 362 399 391 397 330 315 367 331 327 312 280 304 316 336 357 338 365 317 386
348 341 337 404 261 244 388 387 371 371 387 392 383 344 331 362 319 314 296 296 316 367 325 362 369 380 376
335 325 312 252 255 341 398 402 385 359 357 378 388 348 344 354 315 303 296 309 360 312 365 372 363 367 377
334 263 249 386 378 376 376 396 394 394 353 364 363 372 357 345 308 296 308 354 310 363 380 356 366 372 376
374 303 381 379 372 367 361 360 391 390 354 359 363 361 338 300 293 309 356 292 319 381 354 365 363 375 366

GFSFLT2_2pvu_pres_042.txt.gz
Presure
183 195 183 191 194 198 202 159 195 237 299 236 217 219 224 246 258 272 454 435 423 454 437 430 427 409 401
196 185 193 197 200 175 144 223 255 210 221 230 234 253 261 306 453 430 418 428 410 401 399 379 364 356 357
192 194 198 203 211 223 242 282 213 228 237 254 257 420 445 425 414 427 409 387 377 365 355 349 340 345 337
197 199 134 213 232 257 244 223 229 251 258 377 458 421 402 399 398 389 369 360 350 340 330 329 326 325 330
203 213 217 243 274 218 229 242 254 269 466 409 407 378 377 411 385 362 352 339 332 318 322 318 319 316 320
215 229 251 209 226 232 248 255 400 401 406 380 374 351 352 375 358 339 341 326 328 322 319 317 320 324 323
248 229 216 229 239 247 256 384 364 362 378 366 351 336 333 320 313 307 346 341 332 326 321 316 316 319 312
245 225 232 244 252 364 379 355 341 335 336 316 336 329 323 318 308 300 312 299 335 324 297 297 315 308 333
229 238 251 256 389 371 349 336 324 324 334 319 317 310 295 290 286 301 302 307 290 287 278 275 296 305 332
243 253 392 375 357 346 341 363 358 346 357 343 338 314 288 279 274 321 309 304 297 285 278 274 287 307 329
315 378 363 348 351 363 356 352 343 398 376 252 245 311 331 326 329 344 330 347 318 317 279 277 294 312 338
367 352 340 351 348 349 347 344 314 256 243 341 389 375 363 368 351 330 331 317 346 337 287 301 303 328 377
346 344 360 353 351 347 394 267 252 239 405 400 385 371 373 387 382 388 345 365 324 325 314 298 321 367 316
354 352 347 350 341 266 250 393 387 386 413 410 398 362 367 383 370 366 329 353 317 310 301 328 364 347 369
347 344 381 416 252 397 393 382 376 368 386 394 401 366 373 372 367 359 350 319 304 310 338 301 370 370 365
399 426 383 413 404 394 389 384 369 363 390 390 360 368 369 362 359 330 308 303 314 359 283 367 365 380 387
259 411 426 415 414 410 399 388 373 361 399 359 357 359 358 330 310 301 309 358 292 368 349 347 388 360 347

GFSFLT2_2pvu_pres_045.txt.gz
Presure
228 224 221 218 218 220 203 212 201 197 200 201 202 209 216 229 301 227 210 223 260 393 471 459 447 447 448
231 232 231 230 227 225 195 203 192 199 203 209 213 223 306 248 210 239 282 454 445 432 422 418 412 426 420
228 237 236 237 229 227 196 198 157 208 213 226 260 275 215 251 282 398 421 413 404 398 415 420 402 387 381
232 243 244 240 200 200 200 207 213 226 241 292 212 242 266 341 418 403 394 449 426 411 395 377 366 357 350
241 240 220 203 146 167 213 223 234 295 212 246 258 279 378 372 362 385 365 363 387 372 357 347 340 334 330
205 202 204 206 216 226 238 287 209 241 254 272 383 363 359 354 347 336 349 333 327 330 348 338 332 323 324
212 213 223 229 255 284 216 244 253 270 381 373 357 344 343 342 348 357 321 325 319 315 305 336 336 332 325
226 232 256 283 225 251 253 268 379 368 367 358 346 351 355 352 359 355 357 308 295 290 301 308 300 333 330
280 277 233 250 255 262 380 375 359 353 354 365 356 348 345 339 355 353 269 261 292 272 291 302 305 291 286
235 250 254 264 386 380 368 366 371 365 366 357 362 370 344 331 307 253 233 342 338 296 263 258 318 296 291
248 257 292 374 364 360 368 368 358 360 386 383 363 337 423 397 251 295 407 390 322 322 324 319 333 340 310
279 371 364 355 359 358 393 435 427 421 335 348 361 401 412 410 390 387 393 397 408 391 371 328 311 350 340
361 353 350 353 355 435 429 420 408 406 405 398 383 392 402 399 378 375 380 403 384 362 349 356 334 343 326
344 345 349 429 409 416 428 424 410 395 400 389 374 396 395 387 366 376 381 364 343 335 354 344 328 313 311
344 364 418 407 419 432 437 427 425 398 383 377 375 398 357 364 371 357 363 362 355 334 315 311 330 388 387
415 425 411 435 444 442 442 435 419 406 378 359 388 362 360 365 352 351 333 322 313 314 355 363 320 392 381
431 413 435 461 458 447 441 441 423 384 363 351 350 353 343 328 319 310 306 326 364 289 362 355 349 339 334

GFSFLT2_2pvu_pres_048.txt.gz
Presure
254 254 251 248 247 244 240 231 230 232 229 234 239 242 249 251 210 199 200 205 213 214 218 228 250 268 252
257 261 254 254 252 244 241 230 231 231 233 233 233 244 212 201 201 209 215 218 227 238 275 265 235 233 438
264 260 255 251 252 253 248 234 232 231 234 253 212 203 205 215 219 227 240 255 264 245 229 313 447 486 468
246 246 244 243 245 240 229 229 244 239 205 205 214 225 233 238 229 264 252 227 311 381 370 367 375 408 420
230 232 233 237 239 213 207 202 204 216 217 228 251 260 255 242 231 275 391 389 373 352 346 346 341 355 385
232 197 199 203 206 207 213 223 285 280 274 251 230 218 284 388 383 380 379 370 354 341 331 342 336 341 339
211 211 213 221 288 282 273 261 233 223 258 273 344 382 373 364 358 364 364 361 365 353 349 348 346 327 320
250 278 274 267 263 253 233 255 267 340 388 390 375 363 360 358 365 370 376 373 362 347 344 347 349 329 309
261 252 251 242 250 263 272 395 386 376 366 377 374 370 419 414 362 369 365 366 363 353 335 339 343 288 244
238 234 252 262 304 392 387 380 367 363 436 452 437 443 427 405 410 412 428 420 272 418 412 345 253 241 343
242 259 311 383 374 373 367 369 412 426 422 443 443 422 412 400 386 401 416 434 438 402 401 390 378 338 335
325 384 372 365 361 357 417 424 426 435 447 448 440 407 398 387 378 386 403 411 408 390 380 381 384 395 324
375 362 356 351 357 429 434 447 457 452 455 445 422 392 384 376 376 387 394 399 373 375 387 392 399 397 377
353 346 345 443 436 463 486 473 456 445 443 438 398 381 367 394 391 390 373 372 367 361 361 355 349 344 345
337 405 428 442 387 509 485 462 457 446 430 392 373 378 362 358 362 360 359 359 356 354 357 355 348 324 321
460 428 432 417 396 391 426 431 414 385 358 360 360 355 351 350 345 342 332 326 316 309 310 326 376 414 401
368 338 324 320 321 328 338 344 344 340 335 330 326 321 319 315 308 303 315 338 363 368 382 391 339 342 340

GFSFLT2_2pvu_pres_051.txt.gz
Presure
226 215 215 232 241 251 266 261 260 262 262 265 268 265 263 261 261 257 253 243 237 238 239 235 240 258 257
228 237 256 264 262 255 254 252 254 252 250 248 244 244 244 245 245 245 243 239 236 244 257 217 216 209 217
250 258 257 252 237 230 228 231 230 232 235 234 238 243 243 244 242 239 239 212 216 208 209 213 218 223 224
258 231 224 229 234 232 226 225 222 223 211 197 199 206 206 210 242 209 246 247 249 273 277 274 274 274 275
231 233 228 219 218 213 208 194 200 267 281 269 263 262 256 256 257 258 259 264 326 264 242 246 243 345 377
220 213 198 196 221 258 286 262 256 241 249 240 241 239 243 244 404 399 396 395 391 385 373 365 358 355 356
207 217 249 283 281 250 241 241 240 247 278 285 352 403 394 377 372 372 373 381 406 385 371 367 364 363 361
269 273 248 240 238 240 248 261 270 297 403 401 393 371 357 354 422 446 448 458 456 451 448 402 361 358 364
235 234 229 238 249 263 268 316 412 396 371 369 374 442 436 421 424 436 445 443 436 430 430 431 427 355 354
220 240 252 261 278 361 417 401 372 351 443 455 452 479 479 450 431 422 427 428 423 409 406 416 420 420 356
252 256 286 355 404 400 370 370 468 425 442 507 494 473 465 458 420 405 410 411 407 410 421 406 407 407 407
291 385 407 397 377 383 454 402 411 513 486 481 476 450 439 425 409 395 398 392 405 415 400 392 387 389 395
406 392 383 353 458 359 342 376 383 428 503 455 435 416 407 396 377 382 392 369 365 366 369 378 382 384 384
373 356 348 371 331 325 319 317 321 359 366 368 360 360 361 361 359 359 356 357 358 360 361 363 369 377 381
347 340 357 322 315 313 306 306 324 306 318 327 329 333 335 339 346 348 348 348 348 349 350 350 353 339 345
333 352 320 308 306 303 302 339 332 332 338 345 346 334 310 309 309 311 311 305 309 313 319 352 355 352 361
356 323 306 302 298 294 336 330 320 314 329 328 332 336 346 354 358 353 361 292 360 368 378 376 341 334 326

GFSFLT2_2pvu_pres_054.txt.gz
Presure
240 206 235 228 231 233 215 231 234 232 261 255 243 235 232 232 231 232 231 231 233 238 242 250 258 269 275
215 226 231 228 223 224 230 232 263 251 232 229 233 234 233 234 236 230 231 233 235 237 234 235 240 244 249
222 229 232 224 227 233 257 242 226 232 232 222 257 250 244 218 290 219 249 216 239 161 208 208 221 230 239
228 226 211 235 250 242 223 227 232 234 224 232 275 263 250 251 246 243 251 250 247 251 259 242 268 253 250
226 223 237 251 224 221 194 209 258 267 254 235 238 245 248 258 268 283 311 406 437 430 420 398 255 256 267
243 235 215 205 207 247 260 265 264 227 237 238 250 253 265 291 319 415 406 401 395 390 381 382 384 375 372
216 199 224 252 260 239 228 230 233 240 247 249 274 318 408 392 381 391 394 421 440 464 457 446 442 439 473
254 260 248 229 226 229 241 241 247 251 285 312 407 448 466 440 420 414 408 406 425 472 465 455 448 441 439
226 223 225 229 240 242 248 255 292 388 398 377 373 415 516 496 486 472 470 475 476 473 458 431 419 416 418
225 227 237 247 255 286 326 416 391 384 361 348 339 406 521 488 465 464 468 469 467 422 408 403 400 399 402
234 242 276 355 435 416 385 389 371 350 335 326 327 350 392 399 410 421 419 403 392 395 397 399 385 388 397
412 442 406 405 391 370 366 357 343 327 312 357 369 328 342 363 374 364 371 380 368 375 382 396 399 398 401
405 392 388 369 353 352 348 328 323 315 338 333 344 350 352 328 338 350 359 358 356 360 362 361 364 370 372
373 365 352 343 366 337 320 299 307 330 340 345 335 337 340 346 324 326 332 335 343 344 343 345 340 349 357
329 344 337 362 335 317 258 303 343 323 324 337 332 336 361 373 342 359 366 325 315 315 314 320 330 339 353
330 326 368 334 317 293 295 345 322 316 327 327 331 340 352 332 350 364 349 332 349 352 308 386 409 385 391
323 317 351 320 304 296 334 320 311 309 337 340 340 343 349 373 391 366 323 322 322 321 315 317 322 325 321

GFSFLT2_2pvu_pres_057.txt.gz
Presure
244 236 231 231 227 228 239 217 222 228 237 236 217 228 244 261 245 226 233 231 229 231 227 229 234 233 228
235 234 228 227 236 227 216 220 227 236 228 233 250 244 232 230 209 202 232 268 270 259 256 255 256 253 227
230 233 244 242 216 214 219 230 234 233 238 238 233 199 205 262 273 260 240 237 238 238 242 243 241 215 243
246 228 216 214 218 225 233 225 228 236 221 234 262 268 261 230 226 231 258 262 263 267 284 297 310 320 372
214 214 217 225 233 229 238 239 233 246 253 260 235 225 234 250 258 264 268 294 310 379 442 437 425 415 410
216 212 228 227 232 236 240 247 242 253 226 224 234 242 251 261 272 298 388 404 380 371 374 437 417 402 454
235 230 235 239 239 247 238 214 226 229 234 234 243 260 282 327 397 387 369 357 354 498 514 514 503 488 474
234 241 242 249 216 214 225 232 241 240 251 278 300 356 385 355 364 357 346 370 457 476 477 478 475 462 454
240 221 209 217 230 233 171 242 299 409 427 397 382 372 358 346 343 377 377 403 408 419 424 429 428 428 430
217 217 226 234 242 242 265 422 405 393 386 367 353 343 327 342 365 369 378 360 392 382 417 397 394 395 397
227 224 240 241 258 412 397 379 369 368 362 340 327 321 345 348 344 359 374 356 362 364 368 367 368 369 390
245 237 323 351 328 319 361 354 367 351 329 321 327 344 338 340 331 341 373 381 333 349 352 361 355 357 367
354 357 329 372 360 351 346 357 342 326 315 346 334 332 344 343 338 299 348 367 353 314 323 336 347 341 340
334 320 314 352 345 358 350 330 320 283 347 333 323 346 349 360 368 362 361 373 298 364 361 332 324 317 331
309 307 313 332 333 353 334 316 306 312 327 323 324 342 354 386 347 335 360 339 342 340 341 375 361 363 397
296 329 338 319 322 364 325 308 300 332 322 317 332 339 371 341 322 316 308 306 303 306 306 311 318 320 320
290 326 326 316 312 371 314 299 308 322 313 332 333 357 322 305 292 295 299 292 289 288 289 288 295 300 309

GFSFLT2_2pvu_pres_060.txt.gz
Presure
215 248 148 236 215 147 248 223 249 237 237 248 236 222 218 224 232 235 233 245 243 216 238 216 260 242 242
223 153 163 180 214 221 217 216 208 231 227 222 220 220 234 233 241 237 218 248 241 246 256 200 231 232 231
138 223 198 183 174 220 216 212 221 215 223 228 233 241 242 224 235 242 253 240 230 219 220 222 230 236 239
250 168 236 247 245 247 241 233 222 218 228 243 226 222 244 231 221 222 227 237 241 241 244 254 269 288 301
250 251 247 246 258 263 261 255 224 238 241 223 249 225 234 232 234 239 248 248 257 268 293 413 425 417 405
252 241 241 251 256 237 225 233 236 244 243 222 230 206 237 239 246 252 262 305 417 399 379 380 381 376 419
257 256 244 231 235 232 236 243 242 235 191 216 229 239 208 254 283 415 400 384 368 357 352 357 394 399 430
230 234 236 237 236 237 227 236 233 225 234 231 241 255 349 406 399 383 361 349 340 348 351 376 378 387 411
211 236 227 224 226 224 236 242 239 234 246 259 360 377 369 374 357 346 340 356 362 353 351 390 359 381 385
189 214 190 236 231 246 231 238 256 376 352 357 368 371 350 340 334 350 357 354 354 355 374 386 336 353 368
193 236 239 242 233 242 347 353 374 366 354 371 347 338 330 317 342 343 348 358 292 376 328 373 322 333 346
222 237 230 240 332 356 344 333 344 344 360 338 325 319 316 341 323 341 348 362 379 361 386 366 365 337 320
243 321 338 369 345 330 333 351 340 349 341 322 309 324 331 322 333 343 367 336 351 355 396 406 384 376 383
324 319 373 348 327 310 341 337 324 359 328 312 318 324 329 349 357 361 328 312 313 311 314 319 321 319 324
314 377 352 329 312 295 336 328 318 322 316 305 326 318 342 362 317 308 302 299 299 298 295 297 300 302 308
365 358 331 313 296 324 326 323 249 328 305 306 317 333 355 313 299 291 289 288 288 284 288 291 293 295 294
366 336 312 296 290 328 322 313 340 319 297 312 323 340 310 295 290 294 290 286 300 303 319 326 301 290 295

GFSFLT2_2pvu_pres_063.txt.gz
Presure
231 213 226 221 220 216 171 228 229 199 170 175 205 216 258 254 225 224 207 213 219 230 238 231 230 234 238
224 221 219 215 217 227 226 224 232 252 255 179 251 242 251 262 258 245 237 229 248 241 237 230 253 249 241
230 219 225 227 228 226 248 248 254 163 172 254 255 253 257 256 260 251 247 237 226 239 250 241 228 227 230
237 240 235 241 251 259 262 249 247 253 255 254 264 261 243 224 237 235 236 250 246 227 221 223 234 241 244
252 250 259 257 254 253 261 253 260 265 272 239 233 231 246 242 241 241 227 233 231 237 189 242 253 264 274
257 251 259 275 270 264 251 236 233 227 230 233 218 223 232 216 237 241 239 234 231 232 261 281 409 395 390
269 261 237 235 236 236 234 220 235 232 219 233 245 239 244 248 235 254 268 307 369 373 388 358 347 357 355
230 222 227 227 233 228 225 225 226 240 235 248 239 238 251 269 340 385 378 378 374 362 354 346 354 359 356
229 229 225 225 227 230 236 241 232 238 235 254 272 353 358 366 376 378 368 356 345 337 356 351 361 360 370
226 226 231 232 236 245 237 235 241 262 381 360 349 346 341 366 358 349 342 334 359 348 366 368 382 387 376
233 236 182 218 229 235 256 324 350 379 355 334 320 337 362 341 333 333 334 346 344 372 388 381 378 388 389
188 225 261 285 276 320 316 364 369 350 330 310 338 339 337 326 315 333 334 341 371 335 327 324 321 323 327
307 281 273 269 318 309 370 371 343 325 311 302 325 344 324 313 316 317 332 355 322 306 306 304 305 300 296
260 268 307 312 318 366 367 338 319 306 309 339 325 335 312 305 322 342 350 312 308 301 298 298 293 295 297
275 304 305 319 372 375 342 317 302 298 334 327 342 299 299 329 348 331 308 302 293 290 286 285 302 311 320
306 316 333 399 377 341 317 300 291 330 326 307 334 306 312 357 328 298 290 288 282 283 299 287 294 295 295
338 375 397 378 336 314 300 291 334 340 320 306 329 295 323 310 293 284 299 290 283 286 275 288 293 289 288

GFSFLT2_2pvu_pres_066.txt.gz
Presure
231 232 240 213 220 225 226 230 227 226 220 222 227 227 233 223 235 264 265 253 176 236 257 255 254 257 235
231 225 229 220 232 232 232 222 229 220 220 231 234 231 237 250 273 264 254 188 244 243 264 260 257 258 266
249 246 242 236 234 237 235 234 234 238 235 231 245 261 268 270 264 268 267 255 275 263 253 234 234 240 234
229 227 232 247 251 256 258 256 256 256 257 262 277 278 277 267 261 252 240 241 241 236 222 226 225 227 229
247 248 249 251 256 246 256 257 263 244 280 269 251 243 247 241 236 229 217 231 234 238 241 241 242 231 231
260 265 263 253 253 262 263 259 253 243 234 230 237 230 230 244 250 253 257 247 236 236 254 248 245 279 287
252 251 250 243 236 223 226 230 229 228 229 241 245 249 248 247 231 251 258 264 278 325 384 373 375 389 384
236 226 225 229 225 227 233 240 241 237 225 232 241 241 252 261 270 300 351 380 368 371 382 374 366 357 348
227 229 231 232 232 226 223 222 227 235 238 241 243 253 283 296 370 377 359 347 362 358 349 340 332 343 340
229 227 219 218 221 218 221 229 184 306 324 279 284 290 377 360 360 352 360 368 347 337 326 336 342 376 374
232 234 222 210 238 244 275 320 286 275 273 269 308 381 355 336 330 333 341 351 327 325 339 374 356 330 326
229 232 235 245 263 329 283 260 256 284 321 334 382 351 331 315 323 332 349 332 312 338 369 329 310 307 304
238 242 265 323 306 264 259 292 318 328 341 387 350 322 306 308 324 347 322 311 331 369 322 304 300 292 294
257 320 309 263 257 299 315 325 379 393 376 350 319 297 324 336 324 328 300 309 358 308 295 296 289 305 298
321 271 256 278 329 341 416 398 389 360 341 317 298 344 336 318 338 306 311 347 306 284 286 292 294 285 283
252 259 322 383 445 421 406 377 347 324 308 298 335 332 344 320 320 350 340 301 289 291 277 290 282 290 277
278 473 477 445 418 396 357 333 315 303 296 319 310 330 303 331 307 307 298 283 289 283 278 277 280 292 298

GFSFLT2_2pvu_pres_069.txt.gz
Presure
238 230 223 233 231 232 236 226 224 224 225 228 227 224 233 226 227 241 238 232 234 223 221 241 245 270 250
261 265 253 236 241 236 239 239 234 235 238 235 234 236 236 237 232 237 237 235 241 237 256 284 285 273 280
255 248 246 218 217 216 219 224 231 231 234 235 224 223 234 248 255 256 260 257 265 262 272 268 258 250 254
277 266 255 245 237 228 226 229 219 225 232 233 241 253 261 262 261 266 272 279 272 252 235 226 222 232 230
275 270 266 261 257 253 254 254 254 252 256 266 266 256 267 264 240 232 230 225 227 232 233 238 243 248 244
281 277 275 272 269 268 272 271 263 263 254 264 227 227 234 241 240 239 238 235 233 249 253 269 266 282 294
249 255 254 255 254 245 248 250 224 224 230 233 232 232 231 225 222 235 244 249 265 274 304 301 300 320 390
231 229 227 226 225 230 231 232 232 232 234 236 229 232 244 243 251 260 275 299 307 289 282 378 366 364 363
221 225 226 227 230 231 233 234 227 225 235 240 171 168 262 273 335 308 278 273 285 381 356 345 350 347 340
227 224 228 230 231 232 232 237 236 238 248 260 317 322 314 295 278 275 299 395 376 349 329 329 342 328 324
236 244 238 239 244 243 247 261 293 325 322 310 287 277 265 266 293 364 379 362 343 316 351 339 324 321 329
239 237 244 257 271 297 327 323 303 274 262 264 273 288 318 353 373 369 348 330 313 339 347 323 339 377 342
234 251 272 331 336 261 253 263 269 292 337 342 359 368 397 385 351 334 313 306 342 341 326 336 361 315 303
247 274 242 243 254 267 280 391 451 441 429 412 403 395 365 334 312 302 335 335 319 328 312 357 309 297 291
267 279 246 243 274 372 436 458 431 414 406 395 361 326 305 296 323 317 334 307 335 309 356 306 294 286 290
289 241 241 274 291 350 446 428 408 377 352 335 312 295 293 314 315 336 314 341 312 345 303 298 281 286 283
284 241 261 284 386 332 393 375 350 334 319 305 292 290 318 303 317 368 318 320 329 303 296 286 290 292 294

GFSFLT2_2pvu_pres_075.txt.gz
Presure
236 248 298 357 403 344 316 298 256 240 239 231 225 234 218 226 216 215 219 213 216 219 228 226 225 225 226
235 248 242 342 324 361 317 284 288 257 243 241 245 243 230 232 230 224 226 225 212 215 207 222 215 237 229
229 254 242 239 271 342 291 265 279 260 264 252 242 238 232 240 225 238 238 231 218 202 231 219 215 208 211
230 247 246 258 246 240 244 274 283 274 278 279 257 251 256 247 237 229 233 231 232 226 212 225 232 239 244
229 227 249 258 231 242 230 225 231 230 231 241 259 261 260 245 246 241 241 244 252 251 248 255 255 256 254
216 223 250 256 257 252 251 251 239 238 231 229 229 222 221 223 222 225 228 228 230 232 232 232 232 234 236
208 228 246 250 229 209 242 225 225 234 240 229 232 231 232 237 240 242 240 237 237 238 239 240 240 243 244
225 228 250 228 243 238 253 258 251 234 235 237 230 234 238 242 243 253 266 276 297 295 287 283 280 281 285
240 231 246 235 239 224 251 254 239 265 278 271 234 247 250 267 317 283 247 245 243 241 243 258 267 262 258
239 248 238 243 242 217 235 257 235 238 240 240 257 318 290 267 256 255 299 302 308 308 317 345 335 335 337
244 241 242 228 240 259 263 261 245 240 237 247 292 260 248 275 307 386 361 387 378 368 360 354 333 364 402
270 270 271 268 257 268 269 271 239 244 245 259 290 265 267 294 345 468 455 444 433 428 418 411 405 394 377
256 256 253 251 240 253 267 238 245 244 254 293 273 264 296 352 325 396 388 382 374 363 347 342 330 324 312
263 256 261 263 268 264 260 243 250 257 290 296 255 278 289 344 305 341 324 317 321 313 310 312 317 318 307
268 261 260 258 263 272 256 252 273 321 303 252 267 286 281 337 291 345 319 306 304 303 333 318 317 333 321
267 253 262 269 250 249 255 306 287 302 251 264 294 290 279 332 281 307 337 311 298 294 315 322 344 346 364
255 269 250 249 282 302 304 278 291 305 300 293 295 290 281 341 306 285 348 328 305 286 304 318 352 312 322

GFSFLT2_2pvu_pres_078.txt.gz
Presure
262 252 240 227 226 233 246 272 244 348 295 281 266 258 246 240 229 240 232 239 214 225 227 207 208 217 206
259 247 239 221 226 230 232 278 261 243 283 291 257 267 246 230 253 257 249 231 221 222 232 216 217 222 228
247 233 244 233 228 246 228 258 263 218 231 233 237 251 242 252 260 251 240 246 235 254 230 226 211 209 209
231 237 247 249 192 242 203 237 247 228 205 250 232 262 281 252 247 247 244 230 231 242 238 243 228 228 231
242 246 243 246 247 256 241 236 242 237 236 239 236 242 230 229 238 242 270 259 270 261 252 246 242 243 242
237 245 249 253 241 248 249 236 244 238 233 220 253 257 252 238 230 232 232 234 235 233 246 230 237 242 241
239 255 244 250 254 249 246 246 249 240 242 237 217 252 238 231 258 276 264 255 202 145 241 243 244 245 246
241 254 251 244 250 249 251 249 251 255 254 260 262 262 263 242 236 248 241 241 242 286 288 261 254 253 260
261 259 259 264 268 265 261 256 268 273 271 247 255 273 277 260 240 247 245 253 295 274 249 252 258 261 265
242 241 237 244 242 276 268 263 261 260 256 251 253 274 271 242 254 248 262 308 285 263 270 312 369 355 352
238 240 236 243 243 274 271 267 267 263 252 257 256 248 272 252 266 324 308 280 262 308 334 462 441 427 417
239 241 236 243 256 275 273 269 272 261 257 269 270 253 258 276 296 313 255 264 299 330 331 336 370 397 405
218 236 242 249 281 283 278 260 257 265 269 256 258 284 309 288 284 256 267 310 296 307 294 322 311 313 316
231 239 249 280 281 269 265 266 266 256 264 299 302 293 298 288 310 302 299 299 290 326 287 330 309 297 332
239 244 293 281 267 271 256 255 284 311 328 344 317 325 318 309 301 290 291 295 288 337 285 332 332 300 306
242 293 285 268 254 253 290 301 333 350 339 342 331 324 314 303 296 294 291 291 291 305 318 288 341 331 296
294 277 253 250 286 295 292 342 335 352 335 329 331 328 319 301 290 288 297 288 296 302 343 282 299 337 306

GFSFLT2_2pvu_pres_081.txt.gz
Presure
292 280 268 285 273 240 235 250 246 252 208 218 268 244 226 260 268 254 230 233 251 256 250 241 220 218 228
278 263 287 259 230 242 251 245 253 253 263 254 248 257 252 249 245 250 253 258 247 235 245 242 231 227 228
264 271 255 234 243 242 226 252 255 261 253 255 260 239 244 232 251 258 243 240 236 259 237 225 235 244 239
271 261 240 231 238 229 236 260 255 258 253 247 251 251 241 235 228 253 243 253 231 236 245 247 242 232 226
264 241 229 224 207 208 245 259 243 262 265 261 256 245 244 239 240 233 210 251 240 238 232 229 230 267 267
240 232 230 213 204 233 251 257 245 243 243 265 265 268 267 265 261 251 260 241 240 241 239 232 237 238 237
239 232 220 215 226 248 244 239 239 245 242 241 275 268 260 253 271 269 255 263 274 266 252 242 239 263 266
230 225 232 230 228 239 241 238 240 239 242 248 277 274 270 269 267 265 262 253 265 272 282 274 241 249 248
225 218 238 240 237 234 233 238 230 242 249 272 283 278 274 272 273 267 264 264 277 278 277 267 249 262 266
220 237 235 231 228 228 229 238 234 244 252 281 287 285 277 269 265 270 277 271 258 265 272 333 299 314 311
234 233 229 225 231 230 235 235 248 253 290 287 265 270 274 270 266 266 273 283 303 310 309 286 297 256 267
230 223 224 226 230 238 233 247 248 290 281 270 270 260 269 298 309 319 338 321 303 312 291 310 301 298 305
222 219 230 233 237 242 242 246 283 276 262 262 278 308 354 350 348 363 344 331 328 320 309 297 296 292 291
226 227 235 245 238 241 249 282 272 257 271 304 344 339 342 356 353 343 334 328 331 322 299 291 287 292 282
227 238 239 238 241 268 279 261 255 300 306 336 345 341 351 347 330 330 326 331 333 321 307 297 285 293 286
246 238 235 238 279 278 258 264 294 313 340 319 333 340 350 321 319 319 321 325 316 306 303 294 296 292 294
237 237 246 288 275 251 278 289 295 324 299 340 339 361 323 310 317 328 321 313 312 307 306 305 291 292 302

GFSFLT2_2pvu_pres_084.txt.gz
Presure
249 247 250 241 268 278 277 262 243 235 233 227 248 255 257 252 255 258 280 257 264 252 258 228 245 242 230
251 254 247 243 285 264 268 251 238 231 217 207 254 234 268 266 252 240 254 251 245 283 236 260 245 228 244
240 244 245 280 267 261 251 241 236 227 211 215 259 250 243 244 267 264 251 243 256 241 248 256 231 260 250
246 244 273 266 257 254 242 239 236 224 219 249 245 242 246 244 244 242 271 258 245 238 238 234 233 248 250
256 251 267 252 259 246 239 232 228 246 242 234 239 245 250 245 241 242 270 275 271 256 250 240 233 232 238
263 266 255 259 252 240 231 227 243 245 241 237 231 235 241 246 242 248 285 281 274 264 274 266 259 250 244
264 250 256 250 242 231 228 227 241 238 230 230 236 237 235 246 249 264 278 286 278 275 274 265 260 258 260
246 248 255 243 232 230 232 236 233 229 227 234 234 243 243 251 255 293 287 282 288 282 281 282 282 276 270
248 259 244 232 234 236 231 231 224 225 233 239 244 245 250 261 300 290 283 275 276 278 277 275 275 277 278
251 241 236 230 229 230 224 224 227 232 236 250 242 247 254 284 284 267 261 268 272 288 295 297 300 301 316
237 236 230 228 222 218 227 231 233 239 249 243 247 273 284 270 254 283 326 362 356 350 355 356 355 352 364
231 227 221 217 223 227 226 239 239 241 241 250 283 278 260 271 341 350 335 343 349 345 365 351 349 339 332
221 217 225 225 221 220 227 242 247 246 267 282 272 254 299 325 310 295 349 349 364 355 339 338 328 327 323
222 220 219 218 218 225 240 242 245 285 288 267 251 289 297 299 287 345 344 372 359 340 322 316 319 325 325
220 217 217 219 225 235 242 245 307 285 263 253 285 295 275 295 343 340 364 355 327 322 321 316 320 317 315
216 218 223 225 228 240 243 278 286 254 259 282 294 275 280 306 344 343 348 327 327 324 317 306 306 314 310
218 224 224 232 237 250 276 295 245 263 281 295 270 286 288 311 338 345 344 322 312 300 301 303 299 302 305

GFSFLT2_2pvu_pres_087.txt.gz
Presure
204 226 232 246 230 250 243 249 266 269 260 262 250 243 237 223 250 254 247 256 269 267 265 284 285 271 256
197 241 257 237 246 255 238 271 271 261 260 256 244 238 231 248 244 246 247 245 236 245 263 262 276 264 266
238 257 252 249 261 241 239 270 257 260 261 250 242 232 231 238 241 238 236 236 242 239 246 251 265 233 246
256 251 253 253 241 240 267 269 253 256 252 244 235 231 234 239 235 234 236 237 235 244 244 254 282 263 268
257 254 249 240 235 269 264 249 249 253 246 236 234 238 236 238 230 233 236 242 245 249 249 254 286 282 266
251 248 238 240 267 259 249 259 259 244 236 241 235 235 233 227 235 236 250 250 246 250 262 297 295 292 283
240 244 250 264 258 251 256 253 243 234 236 231 232 225 233 235 239 247 245 246 250 265 300 302 299 291 295
243 272 258 252 257 254 252 243 234 232 230 225 226 235 233 235 243 240 242 253 290 292 284 267 253 256 266
265 255 252 254 272 249 240 235 228 223 221 232 230 229 231 251 250 252 289 288 283 260 259 276 306 308 301
250 253 265 241 244 239 230 223 221 228 228 227 227 228 248 250 272 295 287 275 258 313 331 367 315 332 355
249 241 239 241 227 226 218 218 226 222 223 224 226 238 247 281 295 277 259 269 312 300 311 315 355 358 362
249 242 233 227 224 217 224 219 219 219 223 220 230 248 270 296 274 250 275 304 297 293 352 360 369 379 373
237 230 227 225 217 222 219 217 218 223 222 231 243 264 304 279 251 276 299 295 293 295 347 357 361 354 333
229 224 217 216 218 218 215 214 220 225 232 245 266 306 274 247 277 302 294 301 301 281 350 352 347 327 329
224 215 216 217 217 216 214 220 224 228 237 249 296 253 249 292 297 293 299 292 285 292 349 345 335 320 308
215 216 216 216 218 214 219 218 225 235 247 268 277 250 285 294 287 300 278 277 284 292 348 343 312 308 315
217 218 216 217 216 217 216 226 233 242 267 296 245 286 276 281 278 271 277 288 299 340 353 313 313 351 341

GFSFLT2_2pvu_pres_090.txt.gz
Presure
181 209 206 241 222 228 244 257 244 254 255 259 273 265 260 260 253 242 233 238 245 241 237 237 244 250 266
238 238 238 209 207 246 248 250 254 255 240 252 274 255 259 254 245 241 238 239 241 235 242 237 235 247 239
204 210 210 267 233 239 253 254 249 238 253 268 264 261 258 251 241 242 238 235 235 230 231 235 236 242 245
236 246 264 237 239 256 253 253 242 255 258 253 261 255 248 242 241 233 231 227 228 233 232 240 256 248 246
267 260 261 262 248 247 251 233 258 263 250 279 255 250 242 238 231 225 221 234 235 242 250 250 246 246 245
272 258 265 246 243 255 235 272 259 254 273 258 245 240 233 229 220 230 225 232 236 255 254 254 257 273 284
260 257 252 243 253 246 266 258 251 275 251 243 237 229 223 233 227 227 230 231 240 255 269 299 301 296 291
251 239 251 244 245 272 248 253 247 237 242 232 226 222 231 225 228 229 228 234 253 291 304 291 267 261 265
244 243 235 266 258 253 252 243 241 238 229 225 222 229 222 223 224 223 233 254 306 297 286 253 261 291 312
235 235 269 254 275 252 248 243 237 228 225 220 225 218 221 219 220 231 246 306 307 285 250 262 297 307 288
266 256 257 254 251 251 241 238 225 223 221 223 216 217 217 218 228 238 256 305 256 251 279 301 301 276 319
251 257 255 249 240 238 240 231 216 218 219 219 217 215 218 224 234 248 291 276 253 294 287 295 306 291 281
243 240 243 244 239 237 228 214 219 214 217 221 216 217 220 229 242 261 297 248 272 283 294 284 277 281 282
237 232 231 231 231 224 213 214 218 215 219 217 217 219 227 237 248 274 262 259 294 283 279 270 275 288 283
235 233 225 227 230 223 215 217 218 223 217 217 219 226 235 247 263 275 259 293 291 275 269 275 282 296 347
235 235 217 218 228 221 219 223 219 218 217 219 225 232 240 258 276 290 290 274 280 270 269 277 288 290 370
232 237 217 216 214 222 215 217 219 216 220 224 230 238 250 279 302 290 279 295 269 272 278 290 341 353 344

GFSFLT2_2pvu_pres_093.txt.gz
Presure
192 195 187 197 179 214 229 239 230 220 254 263 254 253 246 270 263 264 262 247 249 243 244 238 239 235 235
194 188 203 212 212 271 252 275 258 252 243 255 235 252 240 264 268 258 246 253 245 240 238 236 233 233 238
203 200 215 234 283 281 286 256 267 260 253 253 245 241 267 260 266 253 249 242 238 233 229 230 234 235 239
230 241 272 251 276 262 258 266 245 257 252 246 247 270 259 269 252 247 237 230 227 228 230 228 230 234 242
259 260 266 276 289 266 264 247 254 247 243 243 275 256 270 248 245 235 228 225 230 227 229 231 234 239 246
247 264 275 286 253 263 262 249 231 244 235 269 248 244 232 240 232 229 221 231 226 227 229 230 238 256 315
275 287 257 264 258 263 248 242 245 228 265 247 250 244 241 231 228 218 228 224 224 225 227 231 242 323 316
289 279 266 262 255 244 239 239 240 262 265 256 246 239 232 229 218 220 230 221 220 223 225 233 259 308 263
278 262 266 251 236 239 232 259 251 257 253 247 238 236 224 218 218 224 224 219 219 222 221 244 315 288 257
272 251 251 239 235 228 259 260 252 249 238 234 243 233 224 222 216 222 220 218 220 220 236 254 288 256 264
244 246 239 236 230 230 256 249 247 250 243 239 235 218 221 217 216 222 218 218 221 233 243 276 280 265 306
238 232 233 237 233 251 243 230 236 233 234 229 218 216 218 217 223 218 217 218 229 234 252 276 281 303 287
231 235 228 231 245 237 240 231 231 223 225 230 222 220 220 225 218 217 216 225 232 245 271 281 307 287 292
235 237 254 242 228 233 232 231 232 220 215 221 215 220 221 219 216 219 222 230 244 262 283 300 282 303 273
234 250 234 227 225 232 229 228 235 232 208 232 209 217 220 216 217 221 229 239 260 286 289 267 306 287 286
246 230 227 226 229 231 232 229 233 233 230 207 217 216 217 217 218 228 239 255 288 266 285 296 282 279 279
229 226 224 227 229 229 231 234 231 225 233 217 216 218 215 221 229 238 248 281 257 292 283 281 287 277 279

GFSFLT2_2pvu_pres_096.txt.gz
Presure
165 173 185 187 173 196 205 209 208 234 257 270 271 265 261 258 250 252 246 272 270 263 251 241 242 231 234
185 182 185 194 184 205 204 214 244 262 249 284 280 266 249 251 243 242 280 270 266 252 242 236 234 237 230
188 193 197 196 207 208 214 260 261 256 272 271 265 245 252 240 241 268 257 260 244 241 233 231 227 233 229
199 201 205 211 214 251 250 252 262 283 284 245 256 229 243 250 240 253 263 245 242 233 231 226 232 227 224
209 216 216 223 249 261 262 271 263 280 265 253 245 242 244 236 263 260 247 239 234 230 222 227 226 222 225
222 226 249 264 260 258 276 303 280 275 266 250 232 241 241 275 255 240 243 240 233 228 217 231 227 222 225
248 250 280 283 291 275 289 260 275 253 249 238 239 239 255 259 247 242 236 235 223 216 218 227 227 224 226
299 288 294 283 309 291 280 277 261 250 234 239 242 250 252 248 240 230 239 233 228 220 215 224 223 220 220
284 300 317 302 284 270 261 251 248 233 236 234 257 250 238 241 244 238 235 222 215 218 217 223 220 219 220
307 283 269 256 267 245 256 246 234 238 230 232 246 238 239 231 230 228 226 219 216 221 225 220 219 219 228
277 265 277 274 270 246 243 235 227 230 248 240 244 230 233 225 221 226 227 224 219 221 220 219 219 223 236
274 270 261 243 245 247 237 228 230 234 241 232 235 230 233 228 217 214 215 216 218 218 221 218 222 230 249
260 258 234 229 239 234 222 227 243 240 231 230 230 230 228 233 234 206 215 209 216 219 217 220 229 243 289
243 239 237 245 241 230 242 245 236 227 226 228 231 230 227 227 231 213 231 214 216 218 218 226 241 258 281
244 240 242 237 236 240 235 243 228 226 225 227 227 227 227 230 234 226 234 217 218 215 222 239 251 283 274
246 239 239 251 246 250 250 236 225 223 223 227 225 227 231 240 241 235 216 218 216 221 233 247 279 285 297
248 251 258 263 254 248 234 231 226 225 229 226 230 237 240 236 239 253 216 216 222 230 241 275 272 302 309

GFSFLT2_2pvu_pres_099.txt.gz
Presure
217 224 151 212 162 212 215 207 199 224 207 195 213 222 243 263 292 270 244 251 253 239 268 270 250 247 241
227 195 188 187 219 218 202 201 220 204 204 215 224 263 260 259 278 262 254 247 245 271 257 256 244 242 234
210 204 203 201 193 204 207 203 208 218 221 235 250 254 267 242 258 250 246 243 245 265 270 252 241 234 231
202 204 211 213 219 221 221 219 223 228 234 243 273 272 264 271 260 251 243 234 268 252 243 243 239 232 230
216 215 219 224 223 224 227 230 264 242 265 268 272 268 261 269 235 242 238 259 265 255 243 238 238 232 223
216 227 231 236 237 245 241 248 284 272 271 273 292 275 268 251 240 239 231 264 251 243 240 235 246 226 217
277 266 269 258 251 251 270 287 295 282 293 297 266 264 247 240 235 233 261 251 242 234 233 241 239 217 218
287 290 289 271 268 259 289 283 273 302 287 265 256 240 239 226 236 227 248 237 243 233 234 231 227 219 219
326 276 285 283 290 288 273 306 285 279 272 253 243 247 235 232 238 243 240 230 230 226 224 227 228 224 220
313 310 317 314 273 286 291 282 253 259 262 255 246 235 227 231 235 240 232 226 229 228 220 217 218 216 215
301 299 295 293 280 269 275 262 267 264 250 232 228 226 224 237 237 230 230 228 230 233 234 221 209 216 215
280 278 282 276 276 267 265 254 257 247 234 225 237 222 225 234 228 226 228 230 229 228 230 233 214 230 241
255 258 262 263 262 260 245 252 232 235 234 238 224 228 236 224 225 225 227 225 227 229 236 241 236 239 218
256 258 259 259 231 237 236 239 223 242 237 226 234 229 232 228 224 222 226 226 228 235 246 241 242 224 218
244 241 242 241 234 238 246 241 242 235 234 234 227 242 231 222 218 221 226 228 235 238 241 245 256 217 220
250 246 243 241 235 242 244 235 236 237 255 250 246 238 217 218 223 227 228 234 236 241 247 247 217 232 238
245 249 259 255 249 244 243 245 253 257 243 241 223 222 226 222 220 228 231 243 243 255 217 215 243 237 242

GFSFLT2_2pvu_pres_102.txt.gz
Presure
174 178 180 181 183 167 186 194 213 211 216 211 204 209 218 217 224 249 244 266 284 269 243 252 247 274 271
191 187 182 207 193 209 199 208 203 207 207 211 218 224 217 231 242 253 235 272 280 269 256 249 256 265 244
233 227 201 211 214 213 216 216 218 219 221 222 220 226 236 230 247 250 267 270 261 255 240 246 272 261 244
215 221 221 225 226 226 225 226 223 222 226 230 237 244 249 238 239 269 286 262 256 242 246 272 262 255 244
241 239 240 237 236 232 229 228 229 238 260 253 263 233 262 291 283 293 264 258 250 243 239 263 254 245 239
250 247 137 240 241 245 259 273 285 290 281 277 294 287 286 269 271 263 259 242 238 237 232 256 242 240 247
265 270 275 302 280 299 286 265 252 297 271 284 276 248 266 289 266 256 240 237 233 238 246 243 241 235 230
295 276 280 300 323 348 320 317 287 303 285 279 269 274 284 268 258 253 233 229 235 231 250 234 229 230 227
334 340 334 329 349 342 332 319 303 263 279 290 282 278 265 259 243 237 234 238 222 237 239 231 227 226 231
305 311 334 317 316 308 299 303 295 266 283 271 270 252 245 245 250 237 226 222 222 239 230 229 225 226 225
296 286 311 305 292 287 282 274 266 271 266 249 255 258 257 241 241 223 233 226 233 230 227 223 227 226 228
288 282 272 282 279 279 273 272 266 268 263 265 253 251 245 232 230 234 223 225 233 225 225 224 225 225 229
272 276 262 271 265 263 260 260 256 251 257 246 243 245 237 232 220 235 223 228 232 228 224 219 222 229 229
261 255 259 253 259 254 258 253 247 235 230 231 246 221 219 233 237 223 235 226 234 226 218 220 227 229 235
261 254 252 248 244 243 239 240 241 232 232 238 242 234 236 235 234 228 235 236 237 219 219 221 224 229 239
240 240 245 240 258 250 252 249 243 242 237 241 241 233 227 237 252 258 251 238 222 223 219 224 228 234 242
246 246 236 237 239 234 242 242 258 250 250 244 240 242 248 257 242 245 228 225 224 225 225 226 237 241 244

GFSFLT2_2pvu_pres_105.txt.gz
Presure
177 178 191 192 191 184 196 195 196 200 218 219 219 216 218 222 222 219 223 232 231 244 247 254 275 260 258
194 223 215 219 220 216 212 226 217 228 225 227 228 224 225 229 223 226 227 240 264 229 262 274 257 256 233
243 237 262 243 247 244 237 240 239 239 231 230 235 230 227 226 228 233 246 265 253 249 288 260 258 248 243
270 265 256 249 243 251 252 247 243 243 243 237 233 235 238 243 243 274 268 269 298 254 272 256 240 239 241
271 270 269 269 192 262 260 259 255 254 253 254 281 284 275 275 278 251 262 269 230 280 254 250 241 237 243
279 278 273 276 276 275 275 295 287 304 292 303 301 278 250 231 241 245 271 275 266 265 258 241 235 236 245
278 270 260 261 269 322 293 297 332 331 315 313 311 304 306 295 278 266 258 259 269 255 241 239 229 238 238
259 270 299 313 338 340 343 333 337 325 306 305 304 294 288 272 283 260 264 268 254 245 240 229 232 229 249
297 295 294 312 304 313 320 327 337 312 299 300 305 290 273 263 275 270 266 253 251 245 236 226 235 217 241
269 279 290 297 300 290 316 299 299 289 301 290 298 271 272 276 260 263 251 253 238 248 232 219 218 220 232
276 273 280 287 292 281 291 290 285 285 282 276 269 272 263 257 250 245 238 235 235 240 230 217 229 228 226
273 263 266 273 277 277 280 273 277 281 269 262 257 258 250 243 249 248 251 242 238 228 218 223 219 229 223
264 254 254 241 265 267 257 258 258 262 260 271 264 259 258 260 254 240 246 237 224 227 218 230 223 224 232
261 259 254 250 254 258 257 253 258 254 253 249 245 253 242 246 234 241 238 235 218 222 234 225 225 225 231
254 249 247 258 251 245 254 250 250 246 243 241 248 234 235 242 240 236 228 224 224 234 229 232 232 227 243
254 255 254 258 254 246 241 241 245 252 254 243 238 238 237 236 238 244 240 237 229 230 240 249 252 246 227
267 268 269 259 264 252 242 243 236 238 235 237 233 240 250 245 243 246 247 233 239 249 254 250 240 225 225

GFSFLT2_2pvu_pres_108.txt.gz
Presure
185 231 250 258 241 241 259 240 232 242 263 254 248 246 241 240 242 236 230 236 231 226 230 236 238 265 276
209 227 243 234 253 287 270 278 256 262 262 262 216 255 250 251 246 243 239 234 226 238 232 238 264 239 289
245 242 286 248 248 268 277 278 262 269 265 206 266 261 253 249 246 237 236 232 235 233 243 262 271 278 244
292 292 284 274 269 287 276 275 281 281 278 272 270 265 261 255 254 248 243 244 253 246 256 265 239 280 257
277 264 281 285 201 300 289 296 252 281 255 284 282 269 265 292 271 280 271 269 265 268 272 245 254 275 254
269 252 306 294 266 281 275 257 289 327 348 343 334 322 311 270 271 262 275 254 252 281 268 252 269 264 242
287 265 275 279 246 267 311 304 307 319 322 342 332 318 312 321 293 288 297 283 280 264 257 260 246 252 247
244 262 264 264 269 299 275 290 314 311 319 337 350 314 294 292 282 292 288 280 274 262 249 255 261 246 240
275 254 260 275 281 285 287 294 299 301 319 314 296 297 294 289 272 285 280 268 266 254 253 262 252 242 240
274 266 270 295 279 271 275 278 294 288 306 292 334 294 289 289 281 272 269 252 254 254 256 258 246 230 239
271 273 293 276 271 276 269 270 277 277 289 282 282 283 282 286 280 269 257 262 258 253 255 245 242 225 233
282 289 288 286 287 278 266 265 247 271 271 272 283 274 273 267 266 263 264 255 254 253 240 239 246 226 233
310 295 293 291 279 275 263 260 251 257 264 262 264 258 258 249 257 253 248 245 238 239 232 246 230 228 231
295 289 287 289 275 265 258 252 250 245 253 245 253 259 255 253 259 254 250 253 256 248 248 244 232 229 226
278 276 273 265 272 266 259 251 253 251 248 249 245 238 247 245 243 240 241 238 240 233 237 240 238 228 223
274 272 270 264 262 264 260 252 255 258 250 244 239 241 241 241 243 236 236 238 237 230 238 243 232 230 227
290 292 294 293 287 275 266 266 261 254 260 245 243 240 239 246 237 238 235 246 241 235 237 234 244 240 236

GFSFLT2_2pvu_pres_111.txt.gz
Presure
198 193 198 207 212 206 240 236 316 283 283 299 267 291 274 289 267 263 257 255 252 248 241 237 233 227 228
188 201 213 219 213 246 234 321 309 272 316 290 310 277 315 299 270 266 236 261 260 247 242 240 237 238 235
198 213 223 240 250 248 300 283 269 258 255 243 290 299 241 248 264 257 231 243 243 243 241 240 243 235 240
202 234 234 253 237 284 255 287 255 245 244 273 254 253 270 273 295 262 261 292 266 244 242 239 241 246 250
228 240 233 228 273 271 268 256 246 267 262 307 314 314 320 328 336 324 314 273 248 268 248 235 249 240 256
229 237 252 317 302 247 266 213 269 278 302 306 292 297 319 333 330 327 309 326 293 252 248 253 254 248 243
245 251 314 248 258 278 259 258 287 270 291 290 288 303 303 333 327 317 315 292 298 291 303 249 258 271 263
256 283 253 284 291 268 270 279 267 303 285 280 289 299 313 346 304 304 294 288 281 268 275 274 269 263 253
262 292 293 286 284 265 279 281 286 287 273 285 282 288 302 298 305 291 282 275 271 268 278 268 266 256 256
262 285 279 293 284 283 287 281 295 277 285 279 276 277 296 304 294 289 279 280 265 276 271 267 257 259 244
286 292 281 290 283 283 285 313 302 290 283 276 269 257 276 286 285 285 284 283 282 277 266 262 252 251 247
275 288 287 288 292 318 317 302 296 289 276 264 261 260 264 283 280 275 275 273 278 274 258 255 257 253 248
282 288 318 326 318 307 299 292 291 281 276 264 259 255 260 257 279 264 256 256 262 260 260 260 251 250 252
280 308 294 295 289 294 288 283 294 279 269 260 251 253 252 253 255 264 257 253 253 247 243 242 235 231 237
296 288 281 283 278 277 272 271 274 267 274 264 254 252 253 246 250 245 242 248 250 248 246 243 242 250 253
284 301 304 300 297 291 288 280 274 269 264 261 256 253 255 253 248 242 243 243 241 247 246 243 238 237 238
292 288 287 302 301 299 299 295 293 291 280 267 261 262 258 258 251 242 241 241 246 250 244 240 239 236 232

GFSFLT2_2pvu_pres_114.txt.gz
Presure
183 195 200 192 205 200 208 196 212 193 228 231 226 293 296 265 281 312 300 279 274 281 268 244 245 259 241
197 178 188 194 199 179 209 199 209 215 218 234 242 265 281 223 296 269 292 283 280 255 260 275 250 231 242
196 183 204 203 205 205 201 209 227 207 229 224 307 306 313 321 270 326 320 327 311 264 252 256 240 241 230
202 189 197 191 196 203 211 238 219 227 208 227 289 281 309 307 313 308 309 343 327 301 278 243 248 243 249
186 196 203 202 209 220 225 230 232 199 237 302 283 289 296 308 301 307 316 316 337 332 307 261 262 265 244
215 201 217 220 229 212 205 235 206 210 285 223 287 299 311 295 295 307 337 325 327 319 305 292 261 271 261
188 209 203 204 215 221 228 223 224 279 282 297 286 287 309 287 293 294 311 368 325 305 296 282 282 264 266
219 218 208 209 230 226 236 285 265 240 302 281 283 287 291 291 286 288 307 319 313 303 297 296 282 265 255
218 213 214 224 288 286 256 223 279 301 294 288 286 297 305 288 283 285 295 297 297 288 279 285 280 267 265
210 210 198 210 256 283 294 280 294 298 292 301 320 311 295 286 277 276 286 300 300 288 278 277 267 257 268
214 233 255 264 297 307 293 293 297 329 334 324 308 298 290 278 267 269 272 282 287 284 279 283 265 266 277
253 276 307 306 285 292 284 294 317 319 313 305 301 290 280 278 265 257 266 284 278 287 285 284 285 284 272
315 310 292 293 284 289 287 304 294 294 301 292 290 288 278 274 260 256 262 264 274 266 270 267 274 272 267
274 291 276 285 285 281 303 295 285 280 282 286 279 289 272 273 263 251 254 255 258 257 253 258 259 259 260
274 279 284 280 277 300 293 299 309 301 290 283 277 279 270 273 261 254 251 250 249 247 244 252 257 246 244
276 272 276 274 296 294 297 292 289 301 303 300 295 277 269 265 266 256 250 251 253 244 246 241 239 247 246
274 268 279 291 287 278 273 266 273 307 307 306 302 298 286 270 266 260 258 251 251 248 242 240 244 239 238

GFSFLT2_2pvu_pres_120.txt.gz
Presure
198 192 204 196 179 196 203 233 194 207 217 218 205 206 187 205 206 213 187 225 249 326 322 322 319 330 310
173 170 181 180 198 201 197 213 182 201 174 195 196 204 187 191 185 210 208 234 287 309 308 325 320 310 300
195 203 186 183 159 226 189 205 198 184 203 185 196 187 197 211 208 213 238 309 313 297 294 315 307 344 306
198 193 192 190 192 190 196 177 208 194 197 179 216 198 216 194 208 235 254 260 293 301 285 294 312 369 294
193 185 193 170 195 206 193 162 191 189 200 182 205 212 206 196 194 209 228 307 302 291 289 293 307 359 293
210 176 196 189 217 166 192 199 193 187 187 204 215 216 205 212 220 220 224 268 295 292 295 309 302 355 297
190 169 206 178 172 207 193 206 196 211 191 210 205 203 234 299 248 258 316 303 293 299 305 304 297 374 325
184 191 215 204 181 198 191 192 190 209 199 200 210 230 243 239 226 303 285 301 323 326 309 295 291 348 324
196 210 184 223 190 195 213 205 209 183 203 201 209 212 249 215 288 298 315 339 332 311 296 286 285 323 342
178 208 182 196 184 219 191 180 189 209 231 220 234 297 213 272 293 294 315 323 313 295 286 282 274 307 331
200 196 187 183 214 188 181 217 181 225 194 259 244 214 228 283 276 279 301 308 302 288 282 274 270 298 290
210 197 211 192 179 184 197 219 219 275 231 203 206 270 279 278 279 276 292 285 294 286 276 269 268 285 290
196 189 192 183 193 208 242 262 211 210 236 232 280 267 275 281 271 285 284 277 286 280 275 271 263 272 280
207 220 198 227 231 238 218 228 275 215 254 271 272 273 274 268 288 295 292 286 275 279 271 268 262 258 266
227 240 225 241 263 257 245 271 261 277 275 271 269 268 270 271 289 283 279 297 279 269 275 267 265 258 252
281 268 275 290 291 291 279 282 270 268 263 264 263 262 259 286 278 270 265 266 289 281 267 276 262 255 253
275 285 287 279 277 271 273 262 261 263 265 265 263 267 272 277 271 267 265 275 299 293 278 270 268 263 259

GFSFLT2_2pvu_pres_123.txt.gz
Presure
177 184 192 171 177 184 183 187 183 181 198 195 203 219 167 201 179 194 187 213 202 212 208 207 269 332 323
193 192 172 185 176 197 183 201 171 213 200 184 171 171 196 202 193 187 197 199 195 217 235 261 287 315 316
169 175 171 195 185 196 190 165 199 170 195 198 204 174 166 191 203 191 194 211 206 236 202 283 328 321 308
191 182 188 184 182 185 191 171 187 204 183 205 182 184 208 210 187 197 203 197 206 219 211 250 321 318 298
174 185 182 192 184 180 191 182 193 155 183 181 182 191 218 187 211 197 186 214 229 216 221 236 320 304 297
194 216 192 172 177 188 190 193 195 191 183 166 206 205 178 206 190 182 204 219 254 206 232 320 303 297 307
195 181 184 182 187 197 196 189 202 199 186 183 206 200 212 187 204 208 230 218 226 258 316 308 304 312 312
208 196 195 182 181 181 183 175 190 193 199 220 195 202 181 206 200 228 222 238 278 227 307 316 346 332 314
195 190 189 202 183 193 207 196 189 179 196 194 194 186 205 219 213 237 230 266 247 286 295 335 336 313 298
190 181 200 193 197 197 182 195 201 201 199 201 207 208 204 214 228 236 274 256 255 288 285 317 312 299 292
196 188 191 194 195 204 216 183 201 218 202 212 194 203 233 250 248 265 246 247 276 275 283 300 298 293 284
183 192 204 200 206 193 211 226 201 211 214 220 213 237 237 245 268 253 265 270 272 280 280 286 291 284 276
203 199 207 208 215 200 215 207 221 214 222 217 269 262 259 264 239 259 266 278 278 267 277 280 282 279 275
199 217 201 185 205 209 215 242 251 228 247 301 291 272 259 264 265 276 277 271 276 270 294 284 273 271 274
203 207 213 213 218 218 236 235 244 264 265 277 274 275 271 266 270 270 267 269 258 281 282 283 283 273 270
219 216 216 247 254 288 267 300 292 278 281 279 274 267 265 268 272 271 265 267 281 276 265 262 284 276 270
281 273 289 292 294 300 297 279 285 281 275 273 266 264 258 268 268 268 272 273 275 268 266 258 264 285 275

GFSFLT2_2pvu_pres_126.txt.gz
Presure
157 172 181 190 179 172 183 180 201 180 192 172 187 191 204 211 199 207 189 205 168 187 216 208 215 215 249
199 190 171 188 191 203 183 181 180 193 183 176 198 225 190 183 193 187 180 171 206 209 203 207 214 239 237
182 178 163 192 201 176 196 172 170 187 197 182 191 194 194 200 196 194 203 217 214 202 206 226 237 243 251
198 186 175 168 187 164 179 175 173 180 202 174 127 162 139 163 187 198 185 201 198 208 194 222 226 239 249
199 174 176 139 132 188 174 176 202 200 174 192 177 203 191 195 194 196 195 187 205 214 224 225 246 245 326
131 185 181 162 172 221 203 190 181 187 202 193 199 183 212 198 200 193 205 203 211 216 228 239 257 264 318
176 182 188 167 167 197 200 210 201 198 186 193 191 193 198 210 191 190 210 203 218 219 243 245 293 301 257
190 204 178 176 191 193 201 193 194 189 191 199 200 210 192 202 190 205 201 216 216 236 253 259 306 260 308
191 198 186 191 197 203 209 193 183 193 195 192 197 189 201 194 209 213 198 226 222 249 247 312 295 268 289
196 193 197 196 191 195 194 200 200 194 196 192 197 201 195 209 210 215 239 222 241 314 310 291 245 274 284
192 192 191 192 205 210 202 202 204 201 214 206 208 209 205 214 217 233 225 230 293 303 288 262 250 273 280
202 196 201 204 205 204 203 205 214 201 202 206 209 200 221 248 229 233 247 285 301 284 257 258 264 276 271
210 206 204 200 204 205 208 208 214 206 217 221 234 226 235 219 260 249 311 283 273 274 266 259 273 267 270
216 216 215 213 214 215 216 215 213 222 217 221 232 232 252 253 269 280 287 270 273 267 265 267 264 270 264
221 220 225 216 215 213 216 219 223 227 251 232 241 252 275 299 289 277 279 269 266 266 269 275 269 265 265
222 218 213 213 220 225 234 231 251 245 254 257 283 264 290 271 277 269 267 262 265 266 274 264 265 275 272
263 264 262 264 255 258 254 265 266 299 263 270 290 275 274 283 273 266 265 261 261 263 266 270 277 276 264

GFSFLT2_2pvu_pres_129.txt.gz
Presure
169 183 184 178 190 171 181 184 174 193 201 192 174 176 174 173 193 216 209 193 212 172 208 196 182 219 201
196 178 176 173 180 190 191 192 206 185 177 177 172 170 185 182 191 202 200 212 134 205 185 189 215 204 205
194 192 184 189 174 181 196 199 192 178 185 135 135 194 168 194 175 208 198 212 202 197 209 206 212 208 217
175 183 189 182 178 179 189 177 179 161 115 186 146 157 182 198 200 202 201 208 204 199 210 217 209 206 221
193 195 195 184 185 193 175 173 196 165 199 180 105 183 203 193 200 201 199 213 204 205 213 220 206 211 243
185 199 202 176 196 169 191 200 194 199 199 197 204 212 208 192 208 204 203 209 203 214 206 214 210 223 255
171 189 189 187 204 204 210 197 213 214 210 215 202 207 197 210 206 203 198 208 214 207 205 212 213 245 257
210 187 199 185 210 186 185 195 188 194 189 199 203 198 193 193 211 201 207 206 212 211 202 209 241 236 248
188 186 190 204 200 220 184 211 194 199 189 197 197 210 203 216 210 214 214 207 205 218 219 216 239 245 299
196 223 192 184 184 191 191 183 211 201 205 203 222 215 209 209 205 204 210 209 212 199 213 250 248 248 322
187 206 191 209 206 205 214 221 220 224 224 216 214 205 211 220 217 207 210 222 220 205 242 254 237 260 285
213 212 216 211 203 206 212 213 213 206 216 207 214 219 212 210 206 215 209 214 233 249 245 266 279 289 272
221 217 216 217 216 214 220 213 208 218 223 209 221 210 208 212 219 204 212 221 246 242 262 289 267 276 274
220 219 218 222 226 228 221 225 218 221 216 221 215 219 212 213 219 230 246 238 239 251 266 279 279 273 268
236 231 233 230 230 227 224 224 221 220 217 214 218 214 248 241 241 242 242 252 264 291 279 277 274 267 267
285 251 239 236 237 238 235 227 228 225 225 250 240 244 248 240 244 252 254 296 292 280 280 270 266 261 265
329 304 283 265 254 250 249 250 250 243 245 248 249 246 250 254 253 299 291 276 282 277 266 260 254 260 261

GFSFLT2_2pvu_pres_135.txt.gz
Presure
170 192 191 166 182 191 175 176 199 196 194 180 209 179 205 181 195 176 185 190 188 195 214 207 177 217 221
191 170 185 194 187 208 191 203 197 189 166 182 181 189 201 177 169 208 189 194 175 181 200 200 184 209 167
181 182 185 178 206 177 190 203 180 186 186 196 192 196 197 186 204 173 197 194 182 215 208 167 216 210 222
164 181 176 204 184 180 177 192 189 184 198 185 199 212 176 209 184 212 189 188 215 183 212 222 227 224 229
185 186 195 195 195 196 190 196 203 193 195 191 199 196 206 203 181 197 224 216 210 202 210 225 216 219 213
197 189 184 198 199 200 178 186 192 205 191 172 197 172 195 233 196 235 225 235 224 225 208 211 221 223 210
174 206 197 204 188 206 202 200 198 198 202 209 237 220 227 230 227 227 229 220 215 213 217 217 225 211 217
199 227 196 215 186 199 216 232 232 215 228 226 232 223 222 220 220 218 215 215 207 212 206 212 207 199 222
185 182 190 208 206 215 220 217 217 231 236 230 224 226 228 228 225 222 220 219 218 213 215 217 214 217 213
215 211 212 207 215 268 271 229 275 237 235 222 216 225 223 220 222 221 218 216 216 211 215 222 221 215 213
243 241 241 240 235 234 236 246 247 255 268 229 236 234 231 225 232 223 219 231 218 206 218 217 216 221 224
222 228 247 228 232 245 210 246 227 238 236 248 191 201 214 232 232 230 229 225 218 213 224 219 219 218 217
228 247 245 252 262 256 216 247 230 237 235 227 242 218 197 183 229 237 230 226 227 220 226 216 226 216 223
245 247 249 262 269 284 404 403 372 359 347 265 269 271 249 238 256 266 248 234 232 233 227 221 224 223 227
244 251 263 260 439 414 396 375 354 352 312 309 309 306 260 270 218 237 250 253 238 231 247 248 252 250 249
241 247 388 461 447 391 384 375 350 318 298 306 290 283 288 296 272 248 248 266 258 255 252 264 256 259 279
244 292 486 458 445 379 386 337 311 305 293 280 278 283 273 270 281 264 266 276 256 243 241 299 283 282 297